Overview Statistics Trail Chart Weather Telemetry Raw packets
 

This is the latest recevied weather packets stored in our database for station/object VK6WB. If no packets are shown the sender has not sent any weather packets the latest 10 day(s).

<< 23 24 25 26 27 28 29 >>
Time Temp. Humidity Pressure Rain* Wind** Luminosity Snow
1777239604 15° C 55% 1008.6 hPa 0 mm - 529 W/m² -
1777239004 15.56° C 59% 1008.5 hPa 0 mm - 529 W/m² -
1777238404 15.56° C 62% 1008.6 hPa 0 mm - 477 W/m² -
1777237804 15.56° C 65% 1008.4 hPa 0 mm - 477 W/m² -
1777237204 16.11° C 68% 1008.8 hPa 0 mm - 477 W/m² -
1777236604 16.11° C 68% 1009 hPa 0 mm - 477 W/m² -
1777236004 16.67° C 70% 1009.3 hPa 0 mm - 477 W/m² -
1777235403 17.22° C 68% 1009.5 hPa 0 mm - 477 W/m² -
1777234804 17.22° C 67% 1009.5 hPa 0 mm - 477 W/m² -
1777234203 17.78° C 64% 1009.7 hPa 0 mm - 477 W/m² -
1777233604 17.78° C 62% 1009.5 hPa 0 mm - 477 W/m² -
1777233004 17.78° C 60% 1009.4 hPa 0 mm - 477 W/m² -
1777232403 17.78° C 58% 1009.5 hPa 0 mm - 425 W/m² -
1777231804 18.33° C 57% 1009.4 hPa 0 mm - 425 W/m² -
1777231204 18.33° C 59% 1009.4 hPa 0 mm - 425 W/m² -
1777230603 18.33° C 58% 1009.3 hPa 0 mm - 425 W/m² -
1777230004 18.33° C 57% 1009.3 hPa 0 mm - 425 W/m² -
1777229404 18.33° C 56% 1009.2 hPa 0 mm - 373 W/m² -
1777228803 18.33° C 54% 1009.2 hPa 0 mm - 373 W/m² -
1777228204 18.33° C 54% 1009.1 hPa 0 mm - 321 W/m² -
1777227603 18.33° C 53% 1008.8 hPa 0 mm - 322 W/m² -
1777227003 18.33° C 54% 1008.7 hPa 0 mm - 270 W/m² -
1777226406 18.33° C 57% 1008.9 hPa 0 mm - 270 W/m² -
1777225805 18.33° C 57% 1008.8 hPa 0 mm - 218 W/m² -
1777225206 18.33° C 57% 1008.9 hPa 0 mm - 218 W/m² -

* Rain latest hour (hover to see other rain measurements)
** Current wind speed in m/s (hover to see current wind gust speed)